owner,sensor,date,latitude,longitude,vertical_datum,direction_of_sea_water_velocity,sea_water_speed,upward_sea_water_velocity,qcFlag 
TABS,ioos:station:wmo:42045:1,1999-05-01T00:00:00Z,26.2168,-96.4998,2.0,339.8497605,31.58317432,-99999.0,'11111222,11111222,99999999' 
TABS,ioos:station:wmo:42045:1,1999-05-01T03:00:00Z,26.2168,-96.4998,2.0,339.8497605,31.58317432,-99999.0,'11111222,11111222,99999999' 
TABS,ioos:station:wmo:42045:1,1999-05-01T03:30:00Z,26.2168,-96.4998,2.0,338.100695,30.35009061,-99999.0,'11111222,11111222,99999999' 
TABS,ioos:station:wmo:42045:1,1999-05-01T04:00:00Z,26.2168,-96.4998,2.0,333.074412,31.24743349,-99999.0,'11111222,11111222,99999999' 
TABS,ioos:station:wmo:42045:1,1999-05-01T04:30:00Z,26.2168,-96.4998,2.0,324.4604505,30.76028771,-99999.0,'11111222,11111222,99999999' 
TABS,ioos:station:wmo:42045:1,1999-05-01T05:00:00Z,26.2168,-96.4998,2.0,321.9123214,30.67093086,-99999.0,'11111222,11111222,99999999' 
TABS,ioos:station:wmo:42045:1,1999-05-01T05:30:00Z,26.2168,-96.4998,2.0,314.029296,30.87671615,-99999.0,'11111222,11111222,99999999' 
TABS,ioos:station:wmo:42045:1,1999-05-01T06:00:00Z,26.2168,-96.4998,2.0,315.5478682,32.55668288,-99999.0,'11111222,11111222,99999999' 
TABS,ioos:station:wmo:42045:1,1999-05-01T14:00:00Z,26.2168,-96.4998,2.0,330.3446872,33.42864191,-99999.0,'11111222,11111222,99999999' 
TABS,ioos:station:wmo:42045:1,1999-05-01T14:30:00Z,26.2168,-96.4998,2.0,316.4266377,29.82793489,-99999.0,'11111222,11111222,99999999' 
TABS,ioos:station:wmo:42045:1,1999-05-01T15:00:00Z,26.2168,-96.4998,2.0,313.1994632,33.52634934,-99999.0,'11111222,11111222,99999999' 
TABS,ioos:station:wmo:42045:1,1999-05-01T15:30:00Z,26.2168,-96.4998,2.0,319.1453315,29.15248531,-99999.0,'11111222,11111222,99999999' 
TABS,ioos:station:wmo:42045:1,1999-05-01T16:00:00Z,26.2168,-96.4998,2.0,322.4955014,32.30798353,-99999.0,'11111222,11111222,99999999' 
TABS,ioos:station:wmo:42045:1,1999-05-01T16:30:00Z,26.2168,-96.4998,2.0,333.2219632,36.04566548,-99999.0,'11111222,11111222,99999999' 
TABS,ioos:station:wmo:42045:1,1999-05-01T17:00:00Z,26.2168,-96.4998,2.0,327.0221052,39.95813935,-99999.0,'11111222,11111222,99999999' 
TABS,ioos:station:wmo:42045:1,1999-05-01T17:30:00Z,26.2168,-96.4998,2.0,344.7617413,36.2961706,-99999.0,'11111222,11111222,99999999' 
TABS,ioos:station:wmo:42045:1,1999-05-01T18:00:00Z,26.2168,-96.4998,2.0,340.1010163,35.02101226,-99999.0,'11111222,11111222,99999999' 
TABS,ioos:station:wmo:42045:1,1999-05-01T18:30:00Z,26.2168,-96.4998,2.0,338.4336309,34.44120352,-99999.0,'11111222,11111222,99999999' 
TABS,ioos:station:wmo:42045:1,1999-05-01T19:00:00Z,26.2168,-96.4998,2.0,327.3988851,36.78603675,-99999.0,'11111222,11111222,99999999' 
TABS,ioos:station:wmo:42045:1,1999-05-01T19:30:00Z,26.2168,-96.4998,2.0,342.7919543,30.72540643,-99999.0,'11111222,11111222,99999999' 
TABS,ioos:station:wmo:42045:1,1999-05-01T20:00:00Z,26.2168,-96.4998,2.0,351.7924532,29.20919376,-99999.0,'11111222,11111222,99999999' 
TABS,ioos:station:wmo:42045:1,1999-05-01T20:30:00Z,26.2168,-96.4998,2.0,345.6064804,28.76285973,-99999.0,'11111222,11111222,99999999' 
TABS,ioos:station:wmo:42045:1,1999-05-01T21:00:00Z,26.2168,-96.4998,2.0,343.9083762,30.08892986,-99999.0,'11111222,11111222,99999999' 
TABS,ioos:station:wmo:42045:1,1999-05-01T21:30:00Z,26.2168,-96.4998,2.0,340.5202265,28.60756019,-99999.0,'11111222,11111222,99999999' 
TABS,ioos:station:wmo:42045:1,1999-05-01T22:00:00Z,26.2168,-96.4998,2.0,319.4884952,24.30708744,-99999.0,'11111222,11111222,99999999' 
TABS,ioos:station:wmo:42045:1,1999-05-01T22:30:00Z,26.2168,-96.4998,2.0,343.4040431,25.03283044,-99999.0,'11111222,11111222,99999999' 
TABS,ioos:station:wmo:42045:1,1999-05-02T00:00:00Z,26.2168,-96.4998,2.0,45.7302566,8.323322654,-99999.0,'11133222,11111222,99999999' 
TABS,ioos:station:wmo:42045:1,1999-05-02T08:00:00Z,26.2168,-96.4998,2.0,45.7302566,8.323322654,-99999.0,'11133222,11111222,99999999' 
TABS,ioos:station:wmo:42045:1,1999-05-02T08:30:00Z,26.2168,-96.4998,2.0,35.31909524,10.04968159,-99999.0,'11111222,11111222,99999999' 
TABS,ioos:station:wmo:42045:1,1999-05-02T09:00:00Z,26.2168,-96.4998,2.0,33.42494348,8.387156848,-99999.0,'11133222,11111222,99999999' 
TABS,ioos:station:wmo:42045:1,1999-05-02T11:00:00Z,26.2168,-96.4998,2.0,54.25864304,10.46002868,-99999.0,'11111222,11111222,99999999' 
TABS,ioos:station:wmo:42045:1,1999-05-02T11:30:00Z,26.2168,-96.4998,2.0,63.91952917,8.461583776,-99999.0,'11133222,11111222,99999999' 
TABS,ioos:station:wmo:42045:1,1999-05-02T12:00:00Z,26.2168,-96.4998,2.0,54.18062572,9.927668407,-99999.0,'11133222,11111222,99999999' 
TABS,ioos:station:wmo:42045:1,1999-05-02T12:30:00Z,26.2168,-96.4998,2.0,47.03421788,8.964691852,-99999.0,'11133222,11111222,99999999' 
TABS,ioos:station:wmo:42045:1,1999-05-02T13:00:00Z,26.2168,-96.4998,2.0,50.77689721,7.306161783,-99999.0,'11133222,11111222,99999999' 
TABS,ioos:station:wmo:42045:1,1999-05-02T13:30:00Z,26.2168,-96.4998,2.0,51.60660644,10.07956348,-99999.0,'11111222,11111222,99999999' 
TABS,ioos:station:wmo:42045:1,1999-05-02T14:00:00Z,26.2168,-96.4998,2.0,54.99945997,10.91380777,-99999.0,'11111222,11111222,99999999' 
TABS,ioos:station:wmo:42045:1,1999-05-02T14:30:00Z,26.2168,-96.4998,2.0,88.74646601,13.71328188,-99999.0,'11111222,11111222,99999999' 
TABS,ioos:station:wmo:42045:1,1999-05-02T15:00:00Z,26.2168,-96.4998,2.0,80.21539517,8.767536712,-99999.0,'11133222,11111222,99999999' 
TABS,ioos:station:wmo:42045:1,1999-05-02T15:30:00Z,26.2168,-96.4998,2.0,12.59863942,11.59928015,-99999.0,'11111222,11111222,99999999' 
TABS,ioos:station:wmo:42045:1,1999-05-02T16:00:00Z,26.2168,-96.4998,2.0,7.995718252,9.63364936,-99999.0,'11133222,11111222,99999999' 
TABS,ioos:station:wmo:42045:1,1999-05-02T16:30:00Z,26.2168,-96.4998,2.0,27.28135779,10.73396478,-99999.0,'11111222,11111222,99999999' 
TABS,ioos:station:wmo:42045:1,1999-05-02T17:00:00Z,26.2168,-96.4998,2.0,8.181542129,3.16218279,-99999.0,'11133222,11111222,99999999' 
TABS,ioos:station:wmo:42045:1,1999-05-02T17:30:00Z,26.2168,-96.4998,2.0,339.0612598,5.428489661,-99999.0,'11133222,11111222,99999999' 
TABS,ioos:station:wmo:42045:1,1999-05-02T18:00:00Z,26.2168,-96.4998,2.0,334.2655349,9.258293579,-99999.0,'11133222,11111222,99999999' 
TABS,ioos:station:wmo:42045:1,1999-05-02T18:30:00Z,26.2168,-96.4998,2.0,359.5028649,17.28065103,-99999.0,'11111222,11144222,99999999' 
TABS,ioos:station:wmo:42045:1,1999-05-02T19:00:00Z,26.2168,-96.4998,2.0,10.21355503,16.80630834,-99999.0,'11111222,11111222,99999999' 
TABS,ioos:station:wmo:42045:1,1999-05-02T19:30:00Z,26.2168,-96.4998,2.0,7.890856662,16.24379882,-99999.0,'11111222,11111222,99999999' 
TABS,ioos:station:wmo:42045:1,1999-05-02T20:00:00Z,26.2168,-96.4998,2.0,12.05885256,19.96044338,-99999.0,'11111222,11111222,99999999' 
TABS,ioos:station:wmo:42045:1,1999-05-02T20:30:00Z,26.2168,-96.4998,2.0,13.01820088,16.51443308,-99999.0,'11111222,11111222,99999999' 
TABS,ioos:station:wmo:42045:1,1999-05-02T21:00:00Z,26.2168,-96.4998,2.0,19.0298593,18.27894964,-99999.0,'11111222,11111222,99999999' 
TABS,ioos:station:wmo:42045:1,1999-05-02T21:30:00Z,26.2168,-96.4998,2.0,1.236022639,20.86485322,-99999.0,'11111222,11111222,99999999' 
TABS,ioos:station:wmo:42045:1,1999-05-02T22:00:00Z,26.2168,-96.4998,2.0,357.3896657,19.54027891,-99999.0,'11111222,11111222,99999999' 
TABS,ioos:station:wmo:42045:1,1999-05-02T22:30:00Z,26.2168,-96.4998,2.0,68.81017047,15.65872281,-99999.0,'11111222,11111222,99999999' 
TABS,ioos:station:wmo:42045:1,1999-05-02T23:00:00Z,26.2168,-96.4998,2.0,6.603293735,20.69729451,-99999.0,'11111222,11111222,99999999' 
TABS,ioos:station:wmo:42045:1,1999-05-02T23:30:00Z,26.2168,-96.4998,2.0,340.4761033,22.29176081,-99999.0,'11111222,11111222,99999999' 
TABS,ioos:station:wmo:42045:1,1999-05-03T00:00:00Z,26.2168,-96.4998,2.0,18.42412526,16.48495375,-99999.0,'11111222,11111222,99999999' 
TABS,ioos:station:wmo:42045:1,1999-05-03T00:30:00Z,26.2168,-96.4998,2.0,14.51199306,17.2400261,-99999.0,'11111222,11111222,99999999' 
TABS,ioos:station:wmo:42045:1,1999-05-03T01:00:00Z,26.2168,-96.4998,2.0,2.960649753,20.13687414,-99999.0,'11111222,11111222,99999999' 
TABS,ioos:station:wmo:42045:1,1999-05-03T01:30:00Z,26.2168,-96.4998,2.0,10.58945455,16.21616477,-99999.0,'11111222,11111222,99999999' 
TABS,ioos:station:wmo:42045:1,1999-05-03T02:00:00Z,26.2168,-96.4998,2.0,4.359026887,17.63099543,-99999.0,'11111222,11111222,99999999' 
TABS,ioos:station:wmo:42045:1,1999-05-03T02:30:00Z,26.2168,-96.4998,2.0,4.434401542,17.33187814,-99999.0,'11111222,11111222,99999999' 
TABS,ioos:station:wmo:42045:1,1999-05-03T03:00:00Z,26.2168,-96.4998,2.0,358.4417654,16.54612039,-99999.0,'11111222,11111222,99999999' 
TABS,ioos:station:wmo:42045:1,1999-05-03T03:30:00Z,26.2168,-96.4998,2.0,0.000210459,16.69,-99999.0,'11111222,11111222,99999999' 
TABS,ioos:station:wmo:42045:1,1999-05-03T04:00:00Z,26.2168,-96.4998,2.0,353.5992818,18.7468664,-99999.0,'11111222,11111222,99999999' 
TABS,ioos:station:wmo:42045:1,1999-05-03T04:30:00Z,26.2168,-96.4998,2.0,345.4237591,19.54924039,-99999.0,'11111222,11111222,99999999' 
TABS,ioos:station:wmo:42045:1,1999-05-03T05:00:00Z,26.2168,-96.4998,2.0,345.8537312,18.90326162,-99999.0,'11111222,11111222,99999999' 
TABS,ioos:station:wmo:42045:1,1999-05-03T05:30:00Z,26.2168,-96.4998,2.0,343.303719,20.22258638,-99999.0,'11111222,11111222,99999999' 
TABS,ioos:station:wmo:42045:1,1999-05-03T06:00:00Z,26.2168,-96.4998,2.0,340.6939553,21.62615546,-99999.0,'11111222,11111222,99999999' 
TABS,ioos:station:wmo:42045:1,1999-05-03T06:30:00Z,26.2168,-96.4998,2.0,342.4060268,22.19841661,-99999.0,'11111222,11111222,99999999' 
TABS,ioos:station:wmo:42045:1,1999-05-03T07:00:00Z,26.2168,-96.4998,2.0,345.8778503,22.58251757,-99999.0,'11111222,11111222,99999999' 
TABS,ioos:station:wmo:42045:1,1999-05-03T07:30:00Z,26.2168,-96.4998,2.0,350.8395077,22.48680502,-99999.0,'11111222,11111222,99999999' 
TABS,ioos:station:wmo:42045:1,1999-05-03T08:00:00Z,26.2168,-96.4998,2.0,352.3548748,22.39911605,-99999.0,'11111222,11111222,99999999' 
TABS,ioos:station:wmo:42045:1,1999-05-03T08:30:00Z,26.2168,-96.4998,2.0,352.7122528,27.03844115,-99999.0,'11111222,11111222,99999999' 
TABS,ioos:station:wmo:42045:1,1999-05-03T09:00:00Z,26.2168,-96.4998,2.0,357.7417119,26.39050018,-99999.0,'11111222,11111222,99999999' 
TABS,ioos:station:wmo:42045:1,1999-05-03T09:30:00Z,26.2168,-96.4998,2.0,3.776414894,27.17900844,-99999.0,'11111222,11111222,99999999' 
TABS,ioos:station:wmo:42045:1,1999-05-03T10:00:00Z,26.2168,-96.4998,2.0,4.506277954,26.60222735,-99999.0,'11111222,11111222,99999999' 
TABS,ioos:station:wmo:42045:1,1999-05-03T10:30:00Z,26.2168,-96.4998,2.0,5.414728668,31.58091196,-99999.0,'11111222,11111222,99999999' 
TABS,ioos:station:wmo:42045:1,1999-05-03T11:00:00Z,26.2168,-96.4998,2.0,8.279507244,33.1252366,-99999.0,'11111222,11111222,99999999' 
TABS,ioos:station:wmo:42045:1,1999-05-03T11:30:00Z,26.2168,-96.4998,2.0,12.63665645,34.05488805,-99999.0,'11111222,11111222,99999999' 
TABS,ioos:station:wmo:42045:1,1999-05-03T12:00:00Z,26.2168,-96.4998,2.0,15.77919132,34.53121776,-99999.0,'11111222,11111222,99999999' 
TABS,ioos:station:wmo:42045:1,1999-05-03T12:30:00Z,26.2168,-96.4998,2.0,15.71179397,34.6755894,-99999.0,'11111222,11111222,99999999' 
TABS,ioos:station:wmo:42045:1,1999-05-03T13:00:00Z,26.2168,-96.4998,2.0,21.02951035,35.27974631,-99999.0,'11111222,11111222,99999999' 
TABS,ioos:station:wmo:42045:1,1999-05-03T13:30:00Z,26.2168,-96.4998,2.0,8.443900937,42.63210645,-99999.0,'11111222,11111222,99999999' 
TABS,ioos:station:wmo:42045:1,1999-05-03T14:00:00Z,26.2168,-96.4998,2.0,355.7638256,40.34021938,-99999.0,'11111222,11111222,99999999' 
TABS,ioos:station:wmo:42045:1,1999-05-03T14:30:00Z,26.2168,-96.4998,2.0,14.33427546,41.52266008,-99999.0,'11111222,11111222,99999999' 
TABS,ioos:station:wmo:42045:1,1999-05-03T15:00:00Z,26.2168,-96.4998,2.0,12.49235303,44.1041404,-99999.0,'11111222,11111222,99999999' 
TABS,ioos:station:wmo:42045:1,1999-05-03T15:30:00Z,26.2168,-96.4998,2.0,30.80866649,36.08171975,-99999.0,'11111222,11111222,99999999' 
TABS,ioos:station:wmo:42045:1,1999-05-03T16:00:00Z,26.2168,-96.4998,2.0,15.35189275,41.09636602,-99999.0,'11111222,11111222,99999999' 
TABS,ioos:station:wmo:42045:1,1999-05-03T16:30:00Z,26.2168,-96.4998,2.0,23.00902674,39.65476012,-99999.0,'11111222,11111222,99999999' 
TABS,ioos:station:wmo:42045:1,1999-05-03T17:00:00Z,26.2168,-96.4998,2.0,9.289355111,39.71075673,-99999.0,'11111222,11111222,99999999' 
TABS,ioos:station:wmo:42045:1,1999-05-03T17:30:00Z,26.2168,-96.4998,2.0,21.41569286,40.80747603,-99999.0,'11111222,11111222,99999999' 
TABS,ioos:station:wmo:42045:1,1999-05-03T18:00:00Z,26.2168,-96.4998,2.0,17.98193973,41.98054907,-99999.0,'11111222,11111222,99999999' 
TABS,ioos:station:wmo:42045:1,1999-05-03T18:30:00Z,26.2168,-96.4998,2.0,9.649710297,38.24105255,-99999.0,'11111222,11111222,99999999' 
TABS,ioos:station:wmo:42045:1,1999-05-03T19:00:00Z,26.2168,-96.4998,2.0,11.23539607,45.11459409,-99999.0,'11111222,11111222,99999999' 
TABS,ioos:station:wmo:42045:1,1999-05-03T19:30:00Z,26.2168,-96.4998,2.0,21.38952267,42.08893679,-99999.0,'11111222,11111222,99999999' 
TABS,ioos:station:wmo:42045:1,1999-05-03T20:00:00Z,26.2168,-96.4998,2.0,20.86729202,42.25130649,-99999.0,'11111222,11111222,99999999' 
TABS,ioos:station:wmo:42045:1,1999-05-03T20:30:00Z,26.2168,-96.4998,2.0,15.52497382,44.53486836,-99999.0,'11111222,11111222,99999999' 
TABS,ioos:station:wmo:42045:1,1999-05-03T21:00:00Z,26.2168,-96.4998,2.0,17.60108394,42.36319747,-99999.0,'11111222,11111222,99999999' 
TABS,ioos:station:wmo:42045:1,1999-05-03T21:30:00Z,26.2168,-96.4998,2.0,12.93549432,41.27748175,-99999.0,'11111222,11111222,99999999' 
TABS,ioos:station:wmo:42045:1,1999-05-03T22:00:00Z,26.2168,-96.4998,2.0,17.83885611,41.32688229,-99999.0,'11111222,11111222,99999999' 
TABS,ioos:station:wmo:42045:1,1999-05-03T22:30:00Z,26.2168,-96.4998,2.0,13.85090737,44.19507325,-99999.0,'11111222,11111222,99999999' 
TABS,ioos:station:wmo:42045:1,1999-05-03T23:00:00Z,26.2168,-96.4998,2.0,13.01608769,42.35828726,-99999.0,'11111222,11111222,99999999' 
TABS,ioos:station:wmo:42045:1,1999-05-03T23:30:00Z,26.2168,-96.4998,2.0,7.908210245,36.85043962,-99999.0,'11111222,11111222,99999999' 
TABS,ioos:station:wmo:42045:1,1999-05-04T00:00:00Z,26.2168,-96.4998,2.0,15.07316683,37.80051455,-99999.0,'11111222,11111222,99999999' 
TABS,ioos:station:wmo:42045:1,1999-05-04T00:30:00Z,26.2168,-96.4998,2.0,16.36869916,33.8520605,-99999.0,'11111222,11111222,99999999' 
TABS,ioos:station:wmo:42045:1,1999-05-04T01:00:00Z,26.2168,-96.4998,2.0,43.33901572,21.71023031,-99999.0,'11111222,11111222,99999999' 
TABS,ioos:station:wmo:42045:1,1999-05-04T01:30:00Z,26.2168,-96.4998,2.0,32.03641505,21.6228999,-99999.0,'11111222,11111222,99999999' 
TABS,ioos:station:wmo:42045:1,1999-05-04T02:00:00Z,26.2168,-96.4998,2.0,33.68123415,17.72544499,-99999.0,'11111222,11111222,99999999' 
TABS,ioos:station:wmo:42045:1,1999-05-04T02:30:00Z,26.2168,-96.4998,2.0,33.95202747,17.600821,-99999.0,'11111222,11111222,99999999' 
TABS,ioos:station:wmo:42045:1,1999-05-04T03:00:00Z,26.2168,-96.4998,2.0,30.68022243,14.89483468,-99999.0,'11111222,11111222,99999999' 
TABS,ioos:station:wmo:42045:1,1999-05-04T03:30:00Z,26.2168,-96.4998,2.0,31.51883505,13.1031065,-99999.0,'11111222,11111222,99999999' 
TABS,ioos:station:wmo:42045:1,1999-05-04T04:00:00Z,26.2168,-96.4998,2.0,47.74380379,11.07892143,-99999.0,'11111222,11111222,99999999' 
TABS,ioos:station:wmo:42045:1,1999-05-04T04:30:00Z,26.2168,-96.4998,2.0,29.46500472,7.867617174,-99999.0,'11133222,11111222,99999999' 
TABS,ioos:station:wmo:42045:1,1999-05-04T05:00:00Z,26.2168,-96.4998,2.0,35.94223828,9.387230689,-99999.0,'11133222,11111222,99999999' 
TABS,ioos:station:wmo:42045:1,1999-05-04T05:30:00Z,26.2168,-96.4998,2.0,31.12361071,9.228374721,-99999.0,'11133222,11111222,99999999' 
TABS,ioos:station:wmo:42045:1,1999-05-04T06:00:00Z,26.2168,-96.4998,2.0,0.961456597,8.941258301,-99999.0,'11133222,11111222,99999999' 
TABS,ioos:station:wmo:42045:1,1999-05-04T06:30:00Z,26.2168,-96.4998,2.0,11.15484411,12.30241033,-99999.0,'11111222,11111222,99999999' 
TABS,ioos:station:wmo:42045:1,1999-05-04T07:00:00Z,26.2168,-96.4998,2.0,4.612716418,14.79792553,-99999.0,'11111222,11111222,99999999' 
TABS,ioos:station:wmo:42045:1,1999-05-04T07:30:00Z,26.2168,-96.4998,2.0,1.362693564,18.92535072,-99999.0,'11111222,11111222,99999999' 
TABS,ioos:station:wmo:42045:1,1999-05-04T08:00:00Z,26.2168,-96.4998,2.0,1.441910612,17.88566186,-99999.0,'11111222,11111222,99999999' 
TABS,ioos:station:wmo:42045:1,1999-05-04T08:30:00Z,26.2168,-96.4998,2.0,9.164037852,24.30014403,-99999.0,'11111222,11111222,99999999' 
TABS,ioos:station:wmo:42045:1,1999-05-04T09:00:00Z,26.2168,-96.4998,2.0,6.02039122,24.12303878,-99999.0,'11111222,11111222,99999999' 
TABS,ioos:station:wmo:42045:1,1999-05-04T09:30:00Z,26.2168,-96.4998,2.0,7.12209676,22.82611224,-99999.0,'11111222,11111222,99999999' 
TABS,ioos:station:wmo:42045:1,1999-05-04T10:00:00Z,26.2168,-96.4998,2.0,7.670722157,23.44982942,-99999.0,'11111222,11111222,99999999' 
TABS,ioos:station:wmo:42045:1,1999-05-04T10:30:00Z,26.2168,-96.4998,2.0,0.000210459,22.8,-99999.0,'11111222,11111222,99999999' 
TABS,ioos:station:wmo:42045:1,1999-05-04T11:00:00Z,26.2168,-96.4998,2.0,356.8230169,24.17716278,-99999.0,'11111222,11111222,99999999' 
TABS,ioos:station:wmo:42045:1,1999-05-04T11:30:00Z,26.2168,-96.4998,2.0,355.9737044,27.62819574,-99999.0,'11111222,11111222,99999999' 
TABS,ioos:station:wmo:42045:1,1999-05-04T12:00:00Z,26.2168,-96.4998,2.0,359.6966334,28.31039738,-99999.0,'11111222,11144222,99999999' 
TABS,ioos:station:wmo:42045:1,1999-05-04T12:30:00Z,26.2168,-96.4998,2.0,9.365424301,32.01674874,-99999.0,'11111222,11111222,99999999' 
TABS,ioos:station:wmo:42045:1,1999-05-04T13:00:00Z,26.2168,-96.4998,2.0,11.07843817,34.92072451,-99999.0,'11111222,11111222,99999999' 
TABS,ioos:station:wmo:42045:1,1999-05-04T13:30:00Z,26.2168,-96.4998,2.0,9.917649376,33.73409255,-99999.0,'11111222,11111222,99999999' 
TABS,ioos:station:wmo:42045:1,1999-05-04T14:00:00Z,26.2168,-96.4998,2.0,9.767960353,46.56503087,-99999.0,'11111222,11111222,99999999' 
TABS,ioos:station:wmo:42045:1,1999-05-04T14:30:00Z,26.2168,-96.4998,2.0,24.74301453,33.47297567,-99999.0,'11111222,11111222,99999999' 
TABS,ioos:station:wmo:42045:1,1999-05-04T16:00:00Z,26.2168,-96.4998,2.0,23.54737339,50.71279622,-99999.0,'11111222,11111222,99999999' 
TABS,ioos:station:wmo:42045:1,1999-05-04T16:30:00Z,26.2168,-96.4998,2.0,21.07456754,61.321537,-99999.0,'11111222,11111222,99999999' 
TABS,ioos:station:wmo:42045:1,1999-05-04T17:00:00Z,26.2168,-96.4998,2.0,33.7303935,59.30301257,-99999.0,'11111222,11111222,99999999' 
TABS,ioos:station:wmo:42045:1,1999-05-04T17:30:00Z,26.2168,-96.4998,2.0,34.36241476,56.50010354,-99999.0,'11111222,11111222,99999999' 
TABS,ioos:station:wmo:42045:1,1999-05-04T18:00:00Z,26.2168,-96.4998,2.0,42.43563965,51.67762088,-99999.0,'11111222,11111222,99999999' 
TABS,ioos:station:wmo:42045:1,1999-05-04T18:30:00Z,26.2168,-96.4998,2.0,43.98785988,47.63107494,-99999.0,'11111222,11111222,99999999' 
TABS,ioos:station:wmo:42045:1,1999-05-04T19:00:00Z,26.2168,-96.4998,2.0,49.08111934,50.27549105,-99999.0,'11111222,11111222,99999999' 
TABS,ioos:station:wmo:42045:1,1999-05-04T19:30:00Z,26.2168,-96.4998,2.0,58.10544934,39.48075481,-99999.0,'11111222,11111222,99999999' 
TABS,ioos:station:wmo:42045:1,1999-05-04T20:00:00Z,26.2168,-96.4998,2.0,60.13644098,35.90813278,-99999.0,'11111222,11111222,99999999' 
TABS,ioos:station:wmo:42045:1,1999-05-04T20:30:00Z,26.2168,-96.4998,2.0,58.43057724,33.57958457,-99999.0,'11111222,11111222,99999999' 
TABS,ioos:station:wmo:42045:1,1999-05-04T21:00:00Z,26.2168,-96.4998,2.0,69.64593899,29.55541406,-99999.0,'11111222,11111222,99999999' 
TABS,ioos:station:wmo:42045:1,1999-05-04T21:30:00Z,26.2168,-96.4998,2.0,77.24213443,29.02661193,-99999.0,'11111222,11111222,99999999' 
TABS,ioos:station:wmo:42045:1,1999-05-04T22:00:00Z,26.2168,-96.4998,2.0,75.67261974,27.68094832,-99999.0,'11111222,11111222,99999999' 
TABS,ioos:station:wmo:42045:1,1999-05-04T22:30:00Z,26.2168,-96.4998,2.0,71.10179728,23.46486736,-99999.0,'11111222,11111222,99999999' 
TABS,ioos:station:wmo:42045:1,1999-05-04T23:00:00Z,26.2168,-96.4998,2.0,81.70599126,22.73781872,-99999.0,'11111222,11111222,99999999' 
TABS,ioos:station:wmo:42045:1,1999-05-04T23:30:00Z,26.2168,-96.4998,2.0,79.16811568,21.39113134,-99999.0,'11111222,11111222,99999999' 
TABS,ioos:station:wmo:42045:1,1999-05-05T00:00:00Z,26.2168,-96.4998,2.0,72.73622204,18.56644823,-99999.0,'11111222,11111222,99999999' 
TABS,ioos:station:wmo:42045:1,1999-05-05T00:30:00Z,26.2168,-96.4998,2.0,57.83203238,12.32146501,-99999.0,'11111222,11111222,99999999' 
TABS,ioos:station:wmo:42045:1,1999-05-05T01:00:00Z,26.2168,-96.4998,2.0,188.5970056,14.91762045,-99999.0,'11111222,11111222,99999999' 
TABS,ioos:station:wmo:42045:1,1999-05-05T01:30:00Z,26.2168,-96.4998,2.0,124.7289151,11.77822143,-99999.0,'11111222,11111222,99999999' 
TABS,ioos:station:wmo:42045:1,1999-05-05T02:00:00Z,26.2168,-96.4998,2.0,91.74627754,4.922286054,-99999.0,'11133222,11111222,99999999' 
TABS,ioos:station:wmo:42045:1,1999-05-05T02:30:00Z,26.2168,-96.4998,2.0,110.5032144,2.540964384,-99999.0,'11133222,11111222,99999999' 
TABS,ioos:station:wmo:42045:1,1999-05-05T03:00:00Z,26.2168,-96.4998,2.0,74.65626983,1.700617535,-99999.0,'11133222,11111222,99999999' 
TABS,ioos:station:wmo:42045:1,1999-05-05T03:30:00Z,26.2168,-96.4998,2.0,80.43333638,0.902551938,-99999.0,'11133222,11111222,99999999' 
TABS,ioos:station:wmo:42045:1,1999-05-05T04:00:00Z,26.2168,-96.4998,2.0,349.2933942,2.42216845,-99999.0,'11133222,11111222,99999999' 
TABS,ioos:station:wmo:42045:1,1999-05-05T04:30:00Z,26.2168,-96.4998,2.0,2.504255445,3.433278317,-99999.0,'11133222,11111222,99999999' 
TABS,ioos:station:wmo:42045:1,1999-05-05T05:00:00Z,26.2168,-96.4998,2.0,343.510447,4.192433661,-99999.0,'11133222,11111222,99999999' 
TABS,ioos:station:wmo:42045:1,1999-05-05T05:30:00Z,26.2168,-96.4998,2.0,332.1393631,5.734744981,-99999.0,'11133222,11111222,99999999' 
TABS,ioos:station:wmo:42045:1,1999-05-05T06:00:00Z,26.2168,-96.4998,2.0,344.3977938,6.655238538,-99999.0,'11133222,11111222,99999999' 
TABS,ioos:station:wmo:42045:1,1999-05-05T06:30:00Z,26.2168,-96.4998,2.0,332.9137737,7.862340618,-99999.0,'11133222,11111222,99999999' 
TABS,ioos:station:wmo:42045:1,1999-05-05T07:00:00Z,26.2168,-96.4998,2.0,349.6051766,9.089180381,-99999.0,'11133222,11111222,99999999' 
TABS,ioos:station:wmo:42045:1,1999-05-05T07:30:00Z,26.2168,-96.4998,2.0,6.7001864,10.19965686,-99999.0,'11111222,11111222,99999999' 
TABS,ioos:station:wmo:42045:1,1999-05-05T08:00:00Z,26.2168,-96.4998,2.0,18.15100786,9.566007527,-99999.0,'11133222,11111222,99999999' 
TABS,ioos:station:wmo:42045:1,1999-05-05T08:30:00Z,26.2168,-96.4998,2.0,22.21121561,11.4279832,-99999.0,'11111222,11111222,99999999' 
TABS,ioos:station:wmo:42045:1,1999-05-05T09:00:00Z,26.2168,-96.4998,2.0,20.79589237,12.59022637,-99999.0,'11111222,11111222,99999999' 
TABS,ioos:station:wmo:42045:1,1999-05-05T09:30:00Z,26.2168,-96.4998,2.0,30.99405812,13.0304643,-99999.0,'11111222,11111222,99999999' 
TABS,ioos:station:wmo:42045:1,1999-05-05T10:00:00Z,26.2168,-96.4998,2.0,20.87275492,15.4648828,-99999.0,'11111222,11111222,99999999' 
TABS,ioos:station:wmo:42045:1,1999-05-05T10:30:00Z,26.2168,-96.4998,2.0,21.19003999,15.65872281,-99999.0,'11111222,11111222,99999999' 
TABS,ioos:station:wmo:42045:1,1999-05-05T11:00:00Z,26.2168,-96.4998,2.0,17.9046161,15.02778759,-99999.0,'11111222,11111222,99999999' 
TABS,ioos:station:wmo:42045:1,1999-05-05T11:30:00Z,26.2168,-96.4998,2.0,18.62943206,13.05395725,-99999.0,'11111222,11111222,99999999' 
TABS,ioos:station:wmo:42045:1,1999-05-05T12:00:00Z,26.2168,-96.4998,2.0,19.28164688,12.62835302,-99999.0,'11111222,11111222,99999999' 
TABS,ioos:station:wmo:42045:1,1999-05-05T12:30:00Z,26.2168,-96.4998,2.0,17.8362288,13.61434905,-99999.0,'11111222,11111222,99999999' 
TABS,ioos:station:wmo:42045:1,1999-05-05T13:00:00Z,26.2168,-96.4998,2.0,352.922543,6.005763898,-99999.0,'11133222,11111222,99999999' 